Location: Chuathbaluk
(61.5726°N, 159.2454°W)
Time: 11:14:51
(UTC+00:00)

FO-99 - Pass Details

Date: 23 January 2021
Orbit: 473 x 506 km, 97.2° (Epoch: 06 March)

Event Time Altitude Azimuth Distance (km) Brightness Sun altitude
Rises 18:18:57 0° 26° (NNE) 2,571 ? -6.8°
Reaches altitude 10° 18:22:05 10° 56° (NE) 1,675 ? -6.5°
Maximum altitude 18:23:45 13° 84° (E) 1,504 ? -6.3°
Drops below altitude 10° 18:25:24 10° 111° (ESE) 1,661 ? -6.1°
Sets 18:28:28 0° 142° (SE) 2,528 ? -5.8°
